User: anonymous   Login
Location: Stamford Observatory
(41.1241°N, 73.5498°W)
Time: 09:36:52
(UTC-05:00)
Language:

IRS-P3 - Orbit

View from above orbital plane
View from above orbital plane
View from above satellite
View from above satellite

Ground track
Ground track

The orbit data is extracted from the following two-line orbital elements,

1 23827U 96017A   16344.94619953  .00000034  00000-0  34820-4 0  9997
2 23827  98.7079 278.7608 0002664 209.8097 150.2930 14.22484855 75505
Epoch (UTC): 09 December 2016 22:42:31
Eccentricity: 0.0002664
inclination: 98.7079°
perigee height: 815 km
apogee height: 819 km
right ascension of ascending node: 278.7608°
argument of perigee: 209.8097°
revolutions per day: 14.22484855
mean anomaly at epoch: 150.2930°
orbit number at epoch: 7550

The dashed part of the orbit path shows where the satellite is in the earth's shadow,  

DLR